When you browse on this site, cookies collect data to enhance your experience and personalize the content and advertising you see.
Visit our Privacy Policy to learn more. By continuing to use the site, you agree to this use of cookies and data.
  • In Portugal
  • List of Countries
  • For 7 days
  • Water Temperature
  • Satellite Maps
  • Weather Map
  • Weather Widgets
  • user-avatar
    Login

    Hourly Weather Krutik

    Today, 21 April, Sunday

    Time Temperature Precipitation Wind Pressure Humidity
    00:00 +4°C° 0.1 mm 3 mps 761 mmHg 71%
    01:00 +3°C° 0.1 mm 3 mps 761 mmHg 73%
    02:00 +3°C° 0 mm 2 mps 761 mmHg 82%
    03:00 +3°C° 0 mm 2 mps 761 mmHg 81%
    04:00 +2°C° 0 mm 3 mps 761 mmHg 81%
    05:00 +1°C° 0 mm 3 mps 761 mmHg 81%
    06:00 +3°C° 0 mm 3 mps 761 mmHg 76%
    07:00 +4°C° 0 mm 3 mps 761 mmHg 71%
    08:00 +7°C° 0 mm 3 mps 762 mmHg 64%
    09:00 +8°C° 0 mm 3 mps 762 mmHg 57%
    10:00 +10°C° 0 mm 3 mps 762 mmHg 51%
    11:00 +11°C° 0 mm 3 mps 762 mmHg 44%
    12:00 +12°C° 0 mm 3 mps 762 mmHg 42%
    13:00 +13°C° 0 mm 3 mps 762 mmHg 39%
    14:00 +14°C° 0 mm 3 mps 762 mmHg 36%
    15:00 +14°C° 0 mm 3 mps 762 mmHg 37%
    16:00 +15°C° 0 mm 2 mps 761 mmHg 37%
    17:00 +15°C° 0 mm 2 mps 761 mmHg 38%
    18:00 +13°C° 0 mm 2 mps 761 mmHg 45%
    19:00 +10°C° 0 mm 2 mps 762 mmHg 52%
    20:00 +8°C° 0 mm 2 mps 762 mmHg 59%
    21:00 +8°C° 0 mm 2 mps 762 mmHg 61%
    22:00 +7°C° 0 mm 2 mps 762 mmHg 64%
    23:00 +6°C° 0 mm 2 mps 763 mmHg 66%

    Tomorrow, 22 April, Monday

    Time Temperature Precipitation Wind Pressure Humidity
    00:00 +6°C° 0 mm 2 mps 763 mmHg 68%
    01:00 +7°C° 0 mm 1 mps 763 mmHg 70%
    02:00 +7°C° 0 mm 1 mps 763 mmHg 71%
    03:00 +6°C° 0 mm 1 mps 763 mmHg 73%
    04:00 +6°C° 0 mm 1 mps 763 mmHg 75%
    05:00 +6°C° 0 mm 1 mps 763 mmHg 77%
    06:00 +8°C° 0 mm 1 mps 763 mmHg 71%
    07:00 +10°C° 0 mm 1 mps 763 mmHg 65%
    08:00 +12°C° 0 mm 1 mps 764 mmHg 59%
    09:00 +14°C° 0 mm 2 mps 764 mmHg 52%
    10:00 +16°C° 0 mm 2 mps 764 mmHg 45%
    11:00 +18°C° 0 mm 2 mps 764 mmHg 37%
    12:00 +18°C° 0 mm 2 mps 764 mmHg 36%
    13:00 +18°C° 0 mm 2 mps 764 mmHg 34%
    14:00 +19°C° 0 mm 2 mps 764 mmHg 32%
    15:00 +19°C° 0 mm 2 mps 763 mmHg 33%
    16:00 +18°C° 0 mm 2 mps 763 mmHg 34%
    17:00 +18°C° 0 mm 2 mps 763 mmHg 35%
    18:00 +16°C° 0 mm 2 mps 763 mmHg 41%
    19:00 +14°C° 0 mm 2 mps 764 mmHg 48%
    20:00 +13°C° 0 mm 2 mps 764 mmHg 55%
    21:00 +12°C° 0 mm 2 mps 764 mmHg 58%
    22:00 +10°C° 0 mm 2 mps 764 mmHg 61%
    23:00 +9°C° 0 mm 2 mps 764 mmHg 64%

    Day after tomorrow, 23 April, Tuesday

    Time Temperature Precipitation Wind Pressure Humidity
    00:00 +9°C° 0 mm 2 mps 765 mmHg 64%
    01:00 +8°C° 0 mm 2 mps 765 mmHg 65%
    02:00 +8°C° 0 mm 2 mps 765 mmHg 65%
    03:00 +9°C° 0 mm 1 mps 765 mmHg 66%
    04:00 +8°C° 0 mm 1 mps 765 mmHg 67%
    05:00 +8°C° 0 mm 1 mps 766 mmHg 68%
    06:00 +10°C° 0 mm 1 mps 766 mmHg 63%
    07:00 +12°C° 0 mm 1 mps 766 mmHg 57%
    08:00 +13°C° 0 mm 1 mps 766 mmHg 51%
    09:00 +15°C° 0 mm 2 mps 766 mmHg 46%
    10:00 +16°C° 0 mm 2 mps 766 mmHg 40%
    11:00 +18°C° 0 mm 2 mps 766 mmHg 35%
    12:00 +18°C° 0 mm 2 mps 766 mmHg 34%
    13:00 +19°C° 0 mm 2 mps 766 mmHg 32%
    14:00 +19°C° 0 mm 2 mps 765 mmHg 31%
    15:00 +20°C° 0 mm 1 mps 765 mmHg 31%
    16:00 +20°C° 0 mm 1 mps 765 mmHg 32%
    17:00 +20°C° 0 mm 1 mps 765 mmHg 33%
    18:00 +18°C° 0 mm 1 mps 765 mmHg 38%
    19:00 +15°C° 0 mm 1 mps 765 mmHg 44%
    20:00 +12°C° 0 mm 0 mps 765 mmHg 49%
    21:00 +12°C° 0 mm 1 mps 765 mmHg 51%
    22:00 +12°C° 0 mm 1 mps 765 mmHg 53%
    23:00 +11°C° 0 mm 1 mps 765 mmHg 55%

    24 April, Wednesday

    Time Temperature Precipitation Wind Pressure Humidity
    00:00 +10°C° 0 mm 1 mps 765 mmHg 58%
    01:00 +10°C° 0 mm 1 mps 765 mmHg 60%
    02:00 +9°C° 0 mm 1 mps 766 mmHg 63%
    03:00 +8°C° 0 mm 0 mps 766 mmHg 64%
    04:00 +8°C° 0 mm 0 mps 766 mmHg 65%
    05:00 +7°C° 0 mm 0 mps 766 mmHg 66%
    06:00 +10°C° 0 mm 0 mps 766 mmHg 60%
    07:00 +12°C° 0 mm 0 mps 766 mmHg 54%
    08:00 +15°C° 0 mm 1 mps 766 mmHg 48%
    09:00 +16°C° 0 mm 1 mps 766 mmHg 43%
    10:00 +18°C° 0 mm 2 mps 766 mmHg 38%
    11:00 +19°C° 0 mm 2 mps 765 mmHg 33%
    12:00 +20°C° 0 mm 2 mps 765 mmHg 32%
    13:00 +20°C° 0 mm 2 mps 765 mmHg 31%
    14:00 +20°C° 0 mm 3 mps 764 mmHg 31%
    15:00 +20°C° 0 mm 3 mps 764 mmHg 32%
    16:00 +20°C° 0 mm 2 mps 764 mmHg 33%
    17:00 +20°C° 0 mm 2 mps 763 mmHg 34%
    18:00 +18°C° 0 mm 2 mps 763 mmHg 40%
    19:00 +16°C° 0 mm 2 mps 763 mmHg 47%
    20:00 +14°C° 0 mm 1 mps 763 mmHg 53%
    21:00 +13°C° 0 mm 2 mps 763 mmHg 56%
    22:00 +13°C° 0 mm 2 mps 763 mmHg 59%
    23:00 +12°C° 0 mm 2 mps 763 mmHg 63%

    25 April, Thursday

    Time Temperature Precipitation Wind Pressure Humidity
    00:00 +10°C° 0 mm 2 mps 763 mmHg 64%
    01:00 +10°C° 0 mm 2 mps 763 mmHg 66%
    02:00 +9°C° 0 mm 2 mps 763 mmHg 68%
    03:00 +9°C° 0 mm 2 mps 763 mmHg 69%
    04:00 +9°C° 0 mm 2 mps 763 mmHg 70%
    05:00 +8°C° 0 mm 2 mps 763 mmHg 71%
    06:00 +10°C° 0 mm 3 mps 763 mmHg 65%
    07:00 +12°C° 0 mm 3 mps 763 mmHg 60%
    08:00 +14°C° 0 mm 3 mps 762 mmHg 54%
    09:00 +17°C° 0 mm 4 mps 762 mmHg 48%
    10:00 +17°C° 0 mm 5 mps 762 mmHg 43%
    11:00 +20°C° 0 mm 5 mps 762 mmHg 37%
    12:00 +20°C° 0 mm 5 mps 761 mmHg 36%
    13:00 +21°C° 0 mm 5 mps 761 mmHg 35%
    14:00 +21°C° 0 mm 5 mps 760 mmHg 34%
    15:00 +21°C° 0 mm 5 mps 760 mmHg 36%
    16:00 +20°C° 0 mm 4 mps 759 mmHg 38%
    17:00 +20°C° 0 mm 4 mps 759 mmHg 40%
    18:00 +18°C° 0 mm 4 mps 759 mmHg 46%
    19:00 +17°C° 0 mm 3 mps 759 mmHg 51%
    20:00 +14°C° 0 mm 3 mps 758 mmHg 56%
    21:00 +14°C° 0 mm 3 mps 758 mmHg 59%
    22:00 +13°C° 0 mm 3 mps 758 mmHg 61%
    23:00 +12°C° 0 mm 3 mps 758 mmHg 64%

    26 April, Friday

    Time Temperature Precipitation Wind Pressure Humidity
    00:00 +12°C° 0 mm 3 mps 758 mmHg 66%
    01:00 +11°C° 0 mm 3 mps 757 mmHg 69%
    02:00 +11°C° 0 mm 3 mps 757 mmHg 71%
    03:00 +10°C° 0 mm 3 mps 757 mmHg 73%
    04:00 +10°C° 0 mm 3 mps 756 mmHg 75%
    05:00 +10°C° 0 mm 3 mps 756 mmHg 77%
    06:00 +11°C° 0 mm 3 mps 756 mmHg 71%
    07:00 +13°C° 0 mm 3 mps 756 mmHg 66%
    08:00 +14°C° 0 mm 3 mps 755 mmHg 61%
    09:00 +17°C° 0 mm 4 mps 755 mmHg 56%
    10:00 +19°C° 0 mm 4 mps 755 mmHg 51%
    11:00 +21°C° 0 mm 4 mps 754 mmHg 46%
    12:00 +21°C° 0 mm 4 mps 754 mmHg 44%
    13:00 +22°C° 0 mm 4 mps 753 mmHg 43%
    14:00 +23°C° 0 mm 4 mps 753 mmHg 42%
    15:00 +22°C° 0 mm 4 mps 752 mmHg 43%
    16:00 +22°C° 0 mm 3 mps 752 mmHg 43%
    17:00 +22°C° 0 mm 3 mps 752 mmHg 44%
    18:00 +20°C° 0 mm 2 mps 751 mmHg 51%
    19:00 +18°C° 0 mm 2 mps 751 mmHg 59%
    20:00 +18°C° 0 mm 1 mps 751 mmHg 66%
    21:00 +16°C° 0 mm 1 mps 751 mmHg 69%
    22:00 +15°C° 0 mm 1 mps 751 mmHg 72%
    23:00 +15°C° 0 mm 1 mps 751 mmHg 75%
    Show more